SCP
0 0 0 0 0 0 0 0 0 0 0 0 0 0 0 0 0 0 1 1 1 1 1 1 1 1 1 1 1 1 1 1 2 2 2 2 2 2 1 1 1 0 0 0 0 0 0 0 0
0 0 0 0 0 0 0 0 0 0 0 0 0 0 0 0 0 1 1 1 1 1 1 1 1 1 1 1 1 1 1 1 2 2 2 2 2 1 1 1 1 1 1 1 1 1 0 0 0
0 0 0 0 0 0 0 0 0 0 0 0 0 0 0 0 0 1 1 1 1 1 1 1 1 1 1 1 1 1 2 2 2 1 1 2 2 2 1 1 1 1 1 1 1 1 1 1 1
0 0 0 0 0 0 0 0 0 0 0 0 0 0 0 0 0 0 1 1 1 1 1 1 1 1 1 1 1 2 2 2 2 2 2 2 2 2 1 1 2 2 1 1 1 1 1 1 1
0 0 0 0 0 0 0 0 0 0 0 0 0 0 0 0 0 0 0 1 1 1 1 1 2 2 1 1 2 2 3 3 2 2 3 3 2 1 1 2 2 2 2 2 1 1 1 1 1
0 0 0 0 0 0 0 0 0 0 0 0 0 0 0 0 0 0 0 1 1 1 1 1 2 2 2 2 2 3 3 3 2 2 3 3 2 1 1 1 2 2 2 2 1 1 1 0 0
0 0 0 0 0 0 0 0 0 0 0 0 0 0 0 0 0 0 1 1 1 1 1 1 1 2 2 2 2 3 3 3 2 2 2 2 2 2 2 2 2 2 2 1 1 0 0 0 0
0 0 0 0 0 0 0 0 0 0 0 0 0 0 0 0 0 1 1 1 1 1 1 1 1 2 2 2 2 2 3 2 2 2 2 2 2 2 2 2 2 2 1 1 0 0 0 0 0
0 0 0 0 0 0 0 0 0 0 0 0 0 0 0 0 1 1 1 1 1 1 1 2 2 1 1 1 1 2 2 2 2 2 2 2 2 2 2 2 2 1 1 0 0 0 0 0 0
0 0 0 0 0 0 0 0 0 0 0 0 0 0 1 1 1 1 1 1 1 1 1 1 1 1 1 1 1 1 1 1 2 2 2 2 2 2 1 1 1 1 0 0 0 0 0 0 0
0 0 0 0 0 0 0 0 0 0 0 0 0 1 1 1 1 1 1 1 1 1 1 1 1 1 0 0 1 1 1 1 1 1 1 1 1 1 1 1 0 0 0 0 0 0 0 0 0
0 0 0 0 0 0 0 0 0 0 0 0 0 1 1 1 1 1 1 1 1 1 1 1 1 0 0 0 0 0 1 1 1 1 1 1 1 1 0 0 0 0 0 0 0 0 0 0 0
0 0 0 0 0 0 0 0 0 0 0 0 0 1 1 1 1 1 1 1 1 1 1 1 1 1 1 1 1 1 0 0 0 0 0 0 0 0 0 0 0 0 0 0 0 0 0 0 0
0 0 0 0 0 0 0 0 0 0 0 0 0 0 1 1 1 1 1 1 1 1 1 1 1 1 1 1 1 1 1 0 0 0 0 0 0 0 0 0 0 0 0 0 0 0 0 0 0
0 0 0 0 0 0 0 0 0 0 0 0 0 0 1 1 1 1 1 1 1 2 2 2 2 1 2 2 1 1 0 0 0 0 0 0 0 0 0 0 0 0 0 1 1 1 1 0 1
0 0 0 0 0 0 0 0 0 0 0 0 0 0 1 1 1 1 1 1 1 2 3 3 2 2 2 2 1 1 0 0 0 0 0 0 0 1 1 1 1 1 1 1 1 1 1 1 1
0 0 0 0 0 0 0 0 0 0 0 0 0 0 0 0 1 1 1 1 1 3 4 4 3 2 2 1 1 1 0 0 0 0 0 0 1 1 1 1 1 1 1 1 1 1 1 1 1
0 0 0 0 0 0 0 0 0 0 0 0 0 0 0 0 0 1 1 1 2 4 5 5 4 3 2 1 1 1 1 0 0 1 1 1 1 1 1 1 2 2 2 2 2 2 1 1 1
0 0 0 0 0 0 0 0 0 0 0 0 0 0 0 0 1 1 1 2 3 4 5 5 4 3 2 1 1 1 1 1 1 1 2 2 1 1 2 2 2 3 2 2 2 2 1 1 1
0 0 0 0 0 0 0 0 0 0 0 0 0 0 0 1 1 1 1 2 3 4 5 4 3 3 2 2 2 1 1 1 1 2 2 2 2 2 2 3 3 3 2 2 3 3 2 1 1
0 0 0 0 0 0 0 0 0 0 0 0 0 1 1 1 1 1 1 2 2 3 3 3 3 2 2 2 2 2 2 2 2 2 2 2 2 2 2 2 3 3 3 3 3 3 2 1 1
0 0 0 0 0 0 0 0 0 0 0 0 1 1 1 1 1 1 1 2 2 2 2 2 2 2 2 2 2 2 2 2 2 2 2 2 1 2 2 2 2 3 4 4 4 3 2 2 1
0 0 0 0 0 0 0 0 0 0 0 0 1 1 1 1 1 1 1 1 1 1 1 2 2 2 2 2 2 2 2 2 2 1 1 1 1 1 1 2 2 3 3 3 3 2 2 2 1
0 0 0 0 0 0 0 0 0 0 0 0 0 1 1 1 1 1 1 1 1 1 1 1 1 1 1 2 2 2 2 1 1 1 1 1 1 1 1 1 2 2 2 2 2 1 1 1 1
0 0 0 0 0 0 0 0 0 0 0 0 0 1 1 1 1 1 1 1 1 1 1 1 1 1 1 1 1 1 1 1 1 0 0 0 0 1 1 1 1 1 1 1 1 0 1 1 1
0 0 0 0 0 0 0 0 0 0 0 0 1 1 1 1 0 0 0 0 0 0 0 0 0 0 0 0 0 0 0 0 0 0 0 0 0 0 1 1 1 0 0 0 0 0 0 0 0
0 0 0 0 0 0 0 0 0 0 0 0 1 1 1 0 0 0 0 0 0 0 0 0 0 0 0 0 0 0 0 0 0 0 0 0 0 0 0 0 0 0 0 0 0 0 0 0 0
0 0 0 0 0 0 0 0 0 0 0 1 1 1 0 0 0 0 0 0 0 0 0 0 0 0 0 0 0 0 0 0 0 0 0 0 0 0 0 0 0 0 0 0 0 0 0 0 0
0 0 0 0 0 0 0 0 0 1 1 1 0 0 0 0 0 0 0 0 0 0 0 0 0 0 0 0 0 0 0 0 0 0 0 0 0 0 0 0 0 0 0 0 0 0 0 0 0
0 0 0 0 0 0 0 0 0 0 1 0 0 0 0 0 0 0 0 0 0 0 0 0 0 0 0 0 0 0 0 0 0 0 0 0 0 0 0 0 0 0 0 0 0 0 0 0 0
Wind_Speed
9 8 6 6 7 7 7 5 1 5 3 4 2 4 7 8 7 4 7 6 7 11 12 12 9 9 10 10 9 8 8 9 11 11 11 11 11 10 9 7 6 5 5 4 5 5 5 5 5
6 6 7 6 7 7 7 6 6 4 7 4 3 1 3 4 7 7 8 9 11 11 10 12 10 11 13 11 8 8 9 9 10 10 10 10 9 9 8 7 5 4 3 2 2 3 3 4 5
6 8 6 5 5 3 6 6 2 6 4 4 4 1 4 5 5 5 8 11 12 11 10 13 11 12 14 13 8 7 9 10 8 9 10 10 9 7 5 7 5 3 2 2 3 4 4 5 5
8 8 6 7 3 2 4 4 3 8 7 4 0 1 5 6 4 7 13 13 13 13 13 12 12 13 12 14 9 8 10 10 8 7 8 9 9 7 4 6 7 6 3 4 6 7 6 7 8
8 7 7 5 4 5 1 2 3 5 5 5 1 2 7 7 8 13 15 13 13 13 13 14 13 10 10 12 11 9 9 8 7 7 8 9 7 4 2 3 6 7 4 4 9 12 14 16 13
7 6 7 5 7 4 2 3 4 3 3 4 2 2 11 10 12 16 14 14 14 12 12 12 14 11 10 10 9 10 8 8 8 8 8 8 7 5 4 6 6 6 7 11 16 20 18 15 13
7 6 2 1 5 6 5 6 7 5 3 3 0 2 10 11 13 14 12 12 13 11 10 9 12 12 13 12 10 8 8 9 9 8 7 8 7 6 5 7 7 10 12 11 12 13 12 11 9
6 6 5 5 6 9 7 8 6 5 3 3 2 1 9 14 15 14 13 11 11 9 9 8 8 7 9 11 11 11 10 10 10 9 7 7 6 6 5 4 7 10 10 11 10 9 7 8 8
7 8 5 5 2 8 10 10 6 3 3 5 3 3 8 16 16 15 14 12 11 9 8 9 8 6 7 9 9 10 10 9 10 9 7 5 4 5 5 7 10 12 12 11 10 7 5 6 6
8 3 6 4 3 3 11 9 9 9 9 9 7 3 10 15 15 13 12 11 10 10 10 8 8 8 7 6 6 5 5 6 7 6 6 5 5 5 6 9 10 10 9 10 9 7 8 6 1
5 3 3 3 3 2 9 9 9 9 10 9 9 9 13 15 13 10 8 8 10 10 9 9 7 5 6 5 4 4 3 4 6 6 5 5 4 4 5 5 5 6 6 6 6 5 1 2 3
5 2 4 4 3 4 7 10 10 11 1 4 2 8 12 13 11 9 10 10 11 10 9 9 8 6 5 5 4 4 3 2 3 5 3 3 3 3 3 3 3 3 3 3 1 3 3 4 5
6 2 1 1 2 3 3 7 8 9 3 1 2 9 12 12 11 9 8 9 10 10 9 9 8 7 6 5 4 4 4 3 4 4 5 4 4 4 3 2 2 3 2 3 2 3 4 5 6
1 2 1 2 4 4 7 5 5 11 4 5 5 9 12 12 11 10 11 10 10 11 10 9 8 8 7 6 5 5 5 6 4 5 6 4 3 3 3 2 1 1 3 4 4 4 5 6 7
3 8 8 8 5 3 6 9 11 9 5 8 8 9 11 12 12 11 12 11 10 9 9 8 7 7 7 8 7 6 6 6 5 5 5 5 3 3 0 1 0 1 2 3 4 5 6 7 8
8 11 15 10 7 5 7 12 6 5 7 9 9 9 10 12 13 11 11 9 9 8 9 9 7 7 7 7 6 5 6 6 5 5 5 5 3 2 1 1 1 2 4 5 6 7 8 9 10
13 14 13 7 5 5 8 7 8 6 6 8 6 7 8 10 11 10 10 9 8 7 8 9 8 8 6 6 6 5 5 5 5 4 4 5 4 4 3 3 3 5 6 6 6 7 8 9 11
8 11 7 7 7 7 7 2 10 6 2 3 1 1 4 5 6 5 8 8 5 5 7 11 10 11 3 1 4 4 5 4 4 4 4 5 5 5 4 4 4 5 6 6 6 7 8 9 10
3 5 6 6 4 6 5 9 10 10 8 6 6 5 6 5 5 5 6 5 4 6 8 12 14 13 2 8 5 4 3 4 3 4 5 4 2 2 4 5 3 4 5 5 6 7 9 9 9
8 10 10 5 3 6 11 11 12 11 12 10 8 8 8 8 7 6 4 1 4 4 6 11 10 10 7 7 1 2 2 3 3 3 3 3 4 5 4 5 5 5 6 6 6 7 9 10 11
12 12 11 9 8 6 10 11 11 12 12 12 13 12 12 12 11 10 7 5 5 7 8 11 11 11 6 2 1 4 4 4 3 2 1 4 5 5 5 6 7 7 8 8 8 9 12 13 13
13 10 8 9 11 8 8 7 13 13 13 14 13 13 12 11 11 12 12 11 10 11 10 10 11 11 7 3 3 4 4 5 6 5 5 4 4 6 7 7 8 9 9 10 10 11 12 14 14
5 7 8 9 11 6 8 9 11 12 11 12 12 12 13 14 14 15 14 14 14 13 13 13 13 12 11 10 9 7 7 6 4 6 7 6 6 8 9 9 10 11 11 12 13 14 14 13 15
7 9 7 8 9 12 9 7 6 7 6 10 12 12 13 14 14 15 14 14 14 14 13 13 14 14 13 13 13 12 11 9 9 9 9 9 10 10 11 12 12 13 13 13 14 15 16 15 16
11 12 10 12 12 9 4 7 5 8 6 9 12 12 12 12 12 12 13 13 13 13 12 11 12 12 11 11 11 11 9 8 9 9 10 11 11 11 12 13 13 13 14 15 15 15 16 17 17
15 15 14 10 11 7 8 8 8 9 9 9 10 11 10 10 11 12 12 11 12 11 11 10 10 10 9 9 8 7 7 7 8 10 11 11 10 11 14 14 14 16 17 16 16 15 15 15 15
11 11 11 12 9 9 7 6 8 11 11 11 11 11 10 9 10 10 10 10 11 11 10 10 9 8 8 8 8 8 9 10 10 11 11 10 11 11 13 15 16 16 16 15 13 11 13 13 13
7 8 9 12 14 12 11 10 10 19 15 13 12 11 10 9 9 9 9 10 9 9 8 8 8 8 8 9 9 9 10 11 12 12 12 12 12 13 14 14 14 14 13 12 11 10 11 12 11
9 10 9 8 7 10 13 3 5 10 14 13 12 11 10 9 8 8 8 8 8 7 7 7 8 8 9 10 11 12 12 13 13 13 12 12 12 12 12 11 11 12 12 12 11 10 11 11 11
7 8 12 11 11 10 11 2 2 7 11 12 11 10 9 7 7 7 7 7 6 7 7 8 8 9 11 12 12 13 13 14 13 13 12 12 12 12 11 12 11 11 10 10 11 9 11 12 13
Wind_Direction
190 198 223 232 232 234 223 162 196 150 123 48 329 40 10 357 360 34 85 114 129 127 132 124 111 118 118 112 109 110 111 111 111 109 106 109 110 108 104 103 106 100 86 71 66 76 71 66 59
188 202 221 236 250 223 179 158 182 81 55 91 119 351 315 70 47 89 118 128 128 123 128 118 118 113 105 101 110 115 112 110 113 110 105 98 95 98 106 108 107 107 103 89 85 70 30 24 8
208 229 244 242 248 262 144 160 143 95 106 162 148 251 5 40 57 77 118 136 125 117 110 104 115 110 111 115 114 114 115 114 120 123 119 110 97 82 84 94 83 84 84 47 23 17 1 350 346
207 209 224 242 189 80 31 91 132 143 148 168 197 99 76 40 58 109 135 132 123 119 108 101 102 102 110 111 120 132 120 115 119 118 116 112 97 81 70 86 87 88 67 19 34 25 12 2 357
224 239 229 210 155 124 95 68 166 148 138 144 247 73 99 90 99 129 139 128 119 110 100 86 76 90 98 109 136 125 105 103 106 115 113 105 106 107 120 73 75 89 82 45 43 38 37 41 37
223 239 234 177 154 139 181 197 205 205 127 118 216 89 89 121 129 141 143 124 115 111 107 104 87 85 102 112 101 100 103 105 112 114 116 119 130 136 110 61 51 53 61 66 61 62 56 46 31
265 257 270 163 162 181 171 184 207 201 185 146 67 87 114 138 134 143 141 132 127 124 116 116 109 99 85 80 82 91 98 100 104 105 116 120 125 120 90 62 59 70 76 83 83 74 61 66 58
291 270 195 171 171 141 147 173 199 224 181 107 227 124 130 137 148 145 140 137 126 126 119 112 110 122 121 102 94 92 88 90 94 100 111 116 128 114 100 94 96 93 90 93 105 118 129 97 88
258 243 155 122 147 125 161 172 167 184 193 182 181 351 80 142 161 154 148 146 139 134 135 132 123 114 97 102 114 108 104 113 118 114 111 140 118 109 102 78 86 94 93 97 107 125 149 161 143
248 264 62 32 357 147 173 184 160 181 180 190 187 150 132 159 172 172 163 150 146 144 139 118 118 121 114 109 110 104 122 112 101 97 104 107 100 91 100 90 93 99 112 122 131 158 187 214 183
248 356 31 71 22 256 178 190 179 208 189 199 192 162 164 167 177 186 152 149 143 133 123 109 101 99 107 104 123 119 112 111 109 98 93 97 107 120 126 122 135 138 165 157 163 170 138 22 359
251 46 349 11 351 250 192 186 202 231 63 24 223 160 173 174 176 177 159 157 147 141 130 123 127 124 110 124 124 116 106 88 90 88 106 127 124 113 111 112 115 126 98 81 35 63 11 347 347
239 123 21 330 253 269 213 211 231 238 196 240 192 172 178 175 173 167 156 154 155 149 146 141 140 143 141 134 112 107 105 91 81 103 78 73 99 109 119 91 61 59 59 63 16 4 331 314 313
155 266 226 237 227 215 233 208 243 251 185 211 195 184 177 175 173 164 173 171 174 163 162 149 151 150 143 118 109 110 97 103 103 88 86 81 92 105 121 153 138 54 15 2 334 329 310 304 300
243 251 226 214 212 212 252 230 225 249 191 214 208 186 174 177 179 182 185 175 176 174 160 154 154 144 129 120 119 108 107 109 98 94 98 92 95 102 130 117 217 21 335 297 294 291 290 292 297
237 246 248 215 200 183 231 255 233 242 221 225 208 187 188 185 187 194 194 182 177 187 172 158 140 128 117 111 108 101 106 110 107 110 112 106 106 104 227 181 235 291 280 286 290 292 295 293 292
221 241 236 204 179 198 222 270 46 4 257 242 211 200 204 199 196 203 211 198 193 197 181 147 133 113 107 108 103 105 116 119 121 137 145 146 162 177 227 237 242 251 269 274 280 286 296 297 293
222 221 219 222 162 221 220 53 39 18 339 232 219 251 234 234 208 214 244 236 205 193 163 139 124 91 29 154 131 132 132 129 138 147 143 164 179 196 232 250 252 266 278 289 309 311 299 293 291
267 242 226 203 161 225 130 80 61 52 53 51 28 13 352 342 6 352 298 263 216 194 152 135 129 119 167 252 184 173 142 131 143 140 150 163 179 253 280 289 280 287 303 318 308 300 299 297 300
216 222 224 196 188 218 120 108 87 71 67 55 39 36 17 13 27 21 344 290 228 151 133 137 148 135 182 262 357 71 82 108 112 119 98 37 2 338 324 339 328 342 320 301 297 305 299 295 296
219 231 231 207 163 190 160 146 119 95 74 63 52 45 38 34 38 48 50 61 72 96 118 121 127 130 142 77 223 134 155 154 165 122 39 19 343 340 353 348 338 331 312 310 315 300 297 296 297
229 212 228 198 202 196 210 213 138 116 85 65 56 51 49 51 55 59 66 74 82 91 98 102 110 115 112 114 97 62 39 30 24 353 6 335 347 345 343 340 335 325 315 306 298 297 299 290 288
207 157 202 206 226 247 217 244 139 154 107 77 70 66 66 65 66 67 70 76 82 86 88 86 84 78 71 64 53 49 41 31 12 4 342 328 340 331 330 329 326 315 304 301 297 293 289 287 286
162 166 182 220 233 242 224 237 150 113 99 108 98 89 83 79 78 79 78 75 74 76 78 75 71 65 60 57 52 47 39 20 5 355 336 342 331 323 323 327 319 309 303 301 300 296 291 288 287
199 198 207 213 221 231 155 226 92 94 114 120 117 108 102 96 86 76 71 70 67 66 68 72 72 69 63 58 51 41 24 7 351 348 344 331 322 323 326 325 313 308 306 302 297 293 288 283 279
208 222 236 237 244 210 154 232 115 115 118 117 115 114 111 99 84 75 69 70 71 68 65 67 67 63 55 47 37 28 5 353 345 348 332 319 320 319 316 310 307 304 299 294 290 286 285 288 289
211 227 258 276 264 267 226 139 136 150 150 148 139 132 119 99 84 77 72 67 66 67 62 57 55 48 33 21 7 359 354 345 336 328 316 313 313 310 310 309 304 301 299 297 297 297 297 297 292
258 222 207 234 247 243 242 211 187 174 170 163 156 140 124 106 89 75 66 60 56 54 55 45 32 19 7 356 350 344 338 333 328 320 313 313 313 313 313 312 315 317 318 317 308 297 290 283 281
190 212 237 269 262 261 251 218 40 165 166 167 152 134 122 107 85 66 56 53 46 32 26 18 8 358 353 346 342 336 332 328 321 314 314 317 321 323 329 329 320 316 311 305 298 294 299 303 299
281 251 216 225 234 240 272 314 67 130 149 158 146 131 113 85 64 58 45 30 17 14 11 3 358 351 345 338 331 327 324 321 318 320 327 332 330 331 320 308 327 328 314 311 310 309 307 304 298